TimeAWST,TemperatureF,Dew PointF,Humidity,Sea Level PressureIn,VisibilityMPH,Wind Direction,Wind SpeedMPH,Gust SpeedMPH,PrecipitationIn,Events,Conditions,WindDirDegrees,DateUTC
12:00 AM,74,60,53,29.71,,South,11.5,,,,,180,2013-03-04 16:00:00
12:00 AM,73.4,60.8,65,29.71,-9999.0,South,11.5,-,N/A,,Unknown,180,2013-03-04 16:00:00
1:00 AM,73.4,60.8,65,29.71,-9999.0,South,9.2,-,N/A,,Unknown,170,2013-03-04 17:00:00
2:00 AM,71.6,60.8,69,29.71,-9999.0,South,9.2,-,N/A,,Unknown,170,2013-03-04 18:00:00
3:00 AM,71,62,65,29.71,,South,9.2,,,,,180,2013-03-04 19:00:00
3:00 AM,71.6,62.6,73,29.71,-9999.0,South,9.2,-,N/A,,Unknown,180,2013-03-04 19:00:00
4:00 AM,71.6,62.6,73,29.71,-9999.0,South,10.4,-,N/A,,Unknown,170,2013-03-04 20:00:00
5:00 AM,69,63,76,29.73,,SSE,8.1,,,,,150,2013-03-04 21:00:00
6:00 AM,72,65,71,29.75,,SE,8.1,,,,,140,2013-03-04 22:00:00
6:00 AM,73.4,64.4,73,29.74,-9999.0,SE,8.1,-,N/A,,Unknown,140,2013-03-04 22:00:00
7:00 AM,80.6,60.8,51,29.74,-9999.0,ESE,10.4,-,N/A,,Unknown,120,2013-03-04 23:00:00
8:00 AM,87,54,22,29.75,,East,10.4,,,,,90,2013-03-05 00:00:00
8:00 AM,86.0,53.6,33,29.77,-9999.0,East,10.4,-,N/A,,Unknown,90,2013-03-05 00:00:00
9:00 AM,93,54,18,29.74,,NE,11.5,,,,,50,2013-03-05 01:00:00
9:00 AM,93.2,53.6,26,29.74,-9999.0,NE,11.5,-,N/A,,Unknown,50,2013-03-05 01:00:00
10:00 AM,96.8,53.6,23,29.74,-9999.0,NNE,8.1,-,N/A,,Unknown,30,2013-03-05 02:00:00
11:00 AM,100,52,12,29.70,,NNW,5.8,,,,,340,2013-03-05 03:00:00
11:00 AM,100.4,51.8,20,29.71,-9999.0,NNW,5.8,-,N/A,,Unknown,340,2013-03-05 03:00:00
12:00 PM,104,52,10,29.68,,SSE,4.6,,,,,160,2013-03-05 04:00:00
12:00 PM,104.0,51.8,17,29.68,-9999.0,SSE,4.6,-,N/A,,Unknown,160,2013-03-05 04:00:00
1:00 PM,104.0,48.2,15,29.65,-9999.0,WNW,5.8,-,N/A,,Unknown,300,2013-03-05 05:00:00
2:00 PM,103,49,9,29.64,,South,4.6,,,,,190,2013-03-05 06:00:00
2:00 PM,104.0,48.2,15,29.65,-9999.0,South,4.6,-,N/A,,Unknown,190,2013-03-05 06:00:00
3:00 PM,104,47,8,29.64,,Calm,Calm,,,,,,2013-03-05 07:00:00
3:00 PM,104.0,46.4,14,29.65,-9999.0,Calm,Calm,-,N/A,,Unknown,0,2013-03-05 07:00:00
3:54 PM,102.2,53.6,20,29.65,-9999.0,SSW,17.3,-,N/A,,Unknown,200,2013-03-05 07:54:00
3:56 PM,100.4,53.6,21,29.65,-9999.0,SSE,24.2,-,N/A,,Unknown,150,2013-03-05 07:56:00
4:00 PM,100.4,55.4,22,29.65,-9999.0,SSE,25.3,-,N/A,,Unknown,150,2013-03-05 08:00:00
4:10 PM,100.4,53.6,21,29.65,-9999.0,SSE,23.0,34.5,N/A,,Unknown,150,2013-03-05 08:10:00
5:00 PM,95,54,16,29.67,,SSE,25.3,,,,,160,2013-03-05 09:00:00
5:00 PM,95.0,53.6,25,29.68,-9999.0,SSE,25.3,-,N/A,,Unknown,160,2013-03-05 09:00:00
6:00 PM,90,53,19,29.69,,SSE,21.9,,,,,160,2013-03-05 10:00:00
6:00 PM,89.6,53.6,29,29.68,-9999.0,SSE,21.9,-,N/A,,Unknown,160,2013-03-05 10:00:00
7:00 PM,86.0,53.6,33,29.71,-9999.0,South,20.7,-,N/A,,Unknown,170,2013-03-05 11:00:00
8:00 PM,85,55,26,29.73,,SSE,18.4,,,,,160,2013-03-05 12:00:00
8:00 PM,84.2,55.4,37,29.74,-9999.0,SSE,18.4,-,N/A,,Unknown,160,2013-03-05 12:00:00
9:00 PM,83,57,30,29.74,,SSE,16.1,,,,,150,2013-03-05 13:00:00
9:00 PM,82.4,57.2,42,29.74,-9999.0,SSE,16.1,-,N/A,,Unknown,150,2013-03-05 13:00:00
10:00 PM,80.6,59.0,48,29.74,-9999.0,SE,13.8,-,N/A,,Unknown,140,2013-03-05 14:00:00
11:00 PM,79,58,38,29.74,,SSE,11.5,,,,,150,2013-03-05 15:00:00
11:00 PM,78.8,59.0,51,29.74,-9999.0,SSE,11.5,-,N/A,,Unknown,150,2013-03-05 15:00:00